Tracking 28052 objects as of 22-Sep-2023
HD Live streaming from Space Station
objects crossing your sky now

CZ-2F DEB

Track CZ-2F DEB now!
10-day predictions


NORAD ID: 53364
Int'l Code: 2022-093H
Perigee: 490.9 km
Apogee: 634.5 km
Inclination: 50.0 °
Period: 95.8 minutes
Semi major axis: 6933 km
RCS: Unknown
Launch date: August 4, 2022
Source: People's Republic of China (PRC)
Launch site: Jiuquan Satellite Launch Center, China (JSC)

Note: This is SATELLITE DEBRIS
Your satellite tracking list
Your tracking list is empty




NASA's NSSDC Master Catalog

Two Line Element Set (TLE):
1 53364U 22093H   23264.68506801  .00004310  00000-0  29615-3 0  9992
2 53364  50.0272 356.3019 0103565  27.9682 332.6778 15.03691834 62060
Source of the keplerian elements: AFSPC